TimeMST,TemperatureF,Dew PointF,Humidity,Sea Level PressureIn,VisibilityMPH,Wind Direction,Wind SpeedMPH,Gust SpeedMPH,PrecipitationIn,Events,Conditions,WindDirDegrees,DateUTC
12:15 AM,66.2,26.6,23,29.89,10.0,North,3.5,-,N/A,,Clear,10,2013-04-02 07:15:00
12:35 AM,66.2,26.6,23,29.89,10.0,Calm,Calm,-,N/A,,Clear,0,2013-04-02 07:35:00
12:55 AM,64.4,26.6,24,29.89,10.0,Calm,Calm,-,N/A,,Clear,0,2013-04-02 07:55:00
1:15 AM,62.6,26.6,26,29.90,10.0,ESE,5.8,-,N/A,,Clear,110,2013-04-02 08:15:00
1:35 AM,62.6,28.4,27,29.90,10.0,ESE,6.9,-,N/A,,Clear,110,2013-04-02 08:35:00
1:55 AM,62.6,28.4,27,29.91,10.0,Calm,Calm,-,N/A,,Clear,0,2013-04-02 08:55:00
2:15 AM,60.8,28.4,29,29.91,10.0,Calm,Calm,-,N/A,,Clear,0,2013-04-02 09:15:00
2:35 AM,60.8,28.4,29,29.91,10.0,Calm,Calm,-,N/A,,Clear,0,2013-04-02 09:35:00
2:55 AM,59.0,28.4,31,29.91,10.0,Calm,Calm,-,N/A,,Clear,0,2013-04-02 09:55:00
3:15 AM,59.0,28.4,31,29.91,10.0,Calm,Calm,-,N/A,,Clear,0,2013-04-02 10:15:00
3:35 AM,59.0,28.4,31,29.92,10.0,East,5.8,-,N/A,,Clear,80,2013-04-02 10:35:00
3:55 AM,59.0,26.6,29,29.92,10.0,Calm,Calm,-,N/A,,Clear,0,2013-04-02 10:55:00
4:15 AM,57.2,26.6,31,29.92,10.0,ENE,3.5,-,N/A,,Clear,70,2013-04-02 11:15:00
4:35 AM,59.0,26.6,29,29.92,10.0,Calm,Calm,-,N/A,,Clear,0,2013-04-02 11:35:00
4:55 AM,57.2,26.6,31,29.92,10.0,ENE,3.5,-,N/A,,Clear,60,2013-04-02 11:55:00
5:15 AM,57.2,26.6,31,29.93,10.0,Calm,Calm,-,N/A,,Clear,0,2013-04-02 12:15:00
5:35 AM,57.2,28.4,33,29.94,10.0,Calm,Calm,-,N/A,,Clear,0,2013-04-02 12:35:00
5:55 AM,59.0,26.6,29,29.94,10.0,NNE,4.6,-,N/A,,Clear,30,2013-04-02 12:55:00
6:15 AM,57.2,28.4,33,29.95,10.0,NNW,3.5,-,N/A,,Clear,340,2013-04-02 13:15:00
6:35 AM,57.2,26.6,31,29.95,10.0,Calm,Calm,-,N/A,,Clear,0,2013-04-02 13:35:00
6:55 AM,55.4,28.4,36,29.96,10.0,Calm,Calm,-,N/A,,Clear,0,2013-04-02 13:55:00
7:15 AM,57.2,28.4,33,29.98,10.0,Calm,Calm,-,N/A,,Clear,0,2013-04-02 14:15:00
7:35 AM,59.0,28.4,31,29.98,10.0,Calm,Calm,-,N/A,,Clear,0,2013-04-02 14:35:00
7:55 AM,60.8,28.4,29,29.98,10.0,Calm,Calm,-,N/A,,Clear,0,2013-04-02 14:55:00
8:15 AM,60.8,28.4,29,29.98,10.0,Calm,Calm,-,N/A,,Clear,0,2013-04-02 15:15:00
8:35 AM,62.6,28.4,27,29.99,10.0,Calm,Calm,-,N/A,,Clear,0,2013-04-02 15:35:00
8:55 AM,64.4,30.2,28,29.99,10.0,Calm,Calm,-,N/A,,Clear,0,2013-04-02 15:55:00
9:15 AM,64.4,32.0,30,29.99,10.0,Calm,Calm,-,N/A,,Clear,0,2013-04-02 16:15:00
9:35 AM,66.2,32.0,28,29.99,10.0,Calm,Calm,-,N/A,,Unknown,0,2013-04-02 16:35:00
9:55 AM,69.8,32.0,25,29.99,10.0,West,3.5,-,N/A,,Clear,280,2013-04-02 16:55:00
10:15 AM,71.6,32.0,23,29.98,10.0,NNW,8.1,-,N/A,,Clear,340,2013-04-02 17:15:00
10:35 AM,75.2,32.0,21,29.98,10.0,NNW,16.1,-,N/A,,Clear,340,2013-04-02 17:35:00
10:55 AM,75.2,30.2,19,29.98,10.0,North,13.8,-,N/A,,Clear,350,2013-04-02 17:55:00
11:15 AM,75.2,30.2,19,29.97,10.0,North,16.1,20.7,N/A,,Clear,350,2013-04-02 18:15:00
11:35 AM,77.0,30.2,18,29.96,10.0,North,13.8,-,N/A,,Clear,360,2013-04-02 18:35:00
11:55 AM,77.0,30.2,18,29.96,10.0,North,18.4,23.0,N/A,,Clear,350,2013-04-02 18:55:00
12:15 PM,77.0,28.4,17,29.95,10.0,North,16.1,-,N/A,,Clear,10,2013-04-02 19:15:00
12:35 PM,77.0,28.4,17,29.94,10.0,North,15.0,21.9,N/A,,Clear,350,2013-04-02 19:35:00
12:55 PM,78.8,28.4,16,29.94,10.0,NNE,15.0,23.0,N/A,,Clear,20,2013-04-02 19:55:00
1:15 PM,78.8,28.4,16,29.93,10.0,NNE,11.5,17.3,N/A,,Clear,20,2013-04-02 20:15:00
1:35 PM,78.8,28.4,16,29.92,10.0,North,15.0,20.7,N/A,,Clear,360,2013-04-02 20:35:00
1:55 PM,80.6,28.4,15,29.91,10.0,North,17.3,20.7,N/A,,Clear,350,2013-04-02 20:55:00
2:15 PM,80.6,28.4,15,29.90,10.0,North,17.3,21.9,N/A,,Clear,350,2013-04-02 21:15:00
2:35 PM,80.6,28.4,15,29.90,10.0,North,15.0,-,N/A,,Clear,350,2013-04-02 21:35:00
2:55 PM,82.4,26.6,13,29.89,10.0,North,16.1,23.0,N/A,,Clear,360,2013-04-02 21:55:00
3:15 PM,80.6,28.4,15,29.89,10.0,North,9.2,19.6,N/A,,Clear,360,2013-04-02 22:15:00
3:35 PM,80.6,26.6,14,29.89,10.0,North,12.7,21.9,N/A,,Clear,350,2013-04-02 22:35:00
3:55 PM,82.4,26.6,13,29.88,10.0,North,13.8,-,N/A,,Clear,360,2013-04-02 22:55:00
4:15 PM,82.4,28.4,14,29.88,10.0,North,13.8,19.6,N/A,,Clear,350,2013-04-02 23:15:00
4:35 PM,82.4,28.4,14,29.88,10.0,NNW,18.4,-,N/A,,Clear,340,2013-04-02 23:35:00
4:55 PM,82.4,28.4,14,29.87,10.0,NNW,17.3,21.9,N/A,,Clear,340,2013-04-02 23:55:00
5:15 PM,82.4,28.4,14,29.87,10.0,NNW,12.7,-,N/A,,Clear,340,2013-04-03 00:15:00
5:35 PM,82.4,28.4,14,29.87,10.0,NNW,16.1,-,N/A,,Clear,340,2013-04-03 00:35:00
5:55 PM,82.4,28.4,14,29.87,10.0,NNW,11.5,-,N/A,,Clear,340,2013-04-03 00:55:00
6:15 PM,80.6,28.4,15,29.87,10.0,North,13.8,-,N/A,,Clear,360,2013-04-03 01:15:00
6:35 PM,80.6,32.0,17,29.88,10.0,North,11.5,-,N/A,,Unknown,350,2013-04-03 01:35:00
6:55 PM,78.8,30.2,17,29.88,10.0,NNW,8.1,-,N/A,,Unknown,340,2013-04-03 01:55:00
7:15 PM,77.0,32.0,19,29.88,10.0,NNW,4.6,-,N/A,,Clear,340,2013-04-03 02:15:00
7:35 PM,77.0,32.0,19,29.88,10.0,Calm,Calm,-,N/A,,Clear,0,2013-04-03 02:35:00
7:55 PM,75.2,32.0,21,29.89,10.0,NE,5.8,-,N/A,,Clear,50,2013-04-03 02:55:00
8:15 PM,75.2,28.4,18,29.90,10.0,East,6.9,-,N/A,,Clear,80,2013-04-03 03:15:00
8:35 PM,75.2,28.4,18,29.90,10.0,East,8.1,-,N/A,,Clear,80,2013-04-03 03:35:00
8:55 PM,73.4,28.4,19,29.92,10.0,East,4.6,-,N/A,,Clear,90,2013-04-03 03:55:00
9:35 PM,71.6,28.4,20,29.93,10.0,Calm,Calm,-,N/A,,Clear,0,2013-04-03 04:35:00
9:55 PM,71.6,28.4,20,29.93,10.0,Calm,Calm,-,N/A,,Clear,0,2013-04-03 04:55:00
10:15 PM,71.6,28.4,20,29.93,10.0,Calm,Calm,-,N/A,,Clear,0,2013-04-03 05:15:00
10:35 PM,71.6,28.4,20,29.94,10.0,Calm,Calm,-,N/A,,Clear,0,2013-04-03 05:35:00
10:55 PM,69.8,28.4,21,29.94,10.0,Calm,Calm,-,N/A,,Clear,0,2013-04-03 05:55:00
11:15 PM,68.0,30.2,24,29.94,10.0,Calm,Calm,-,N/A,,Clear,0,2013-04-03 06:15:00
11:35 PM,66.2,30.2,26,29.95,10.0,Calm,Calm,-,N/A,,Clear,0,2013-04-03 06:35:00
11:55 PM,68.0,30.2,24,29.95,10.0,Calm,Calm,-,N/A,,Clear,0,2013-04-03 06:55:00